Garden City, KS

7:32 PM CDT on October 23, 2017 (GMT -0500)
Garden City Regional

Weather History for KGCK - December, 2013

Change the Weather History Date:

Saturday, December 14, 2013

  Actual Average Record
Temperature  
Mean Temperature 34 °F 31 °F  
Max Temperature 49 °F 44 °F 70 °F (1977)
Min Temperature 19 °F 19 °F -5 °F (1963)
Degree Days  
Heating Degree Days 31 34  
Month to date heating degree days 546 450  
Since 1 July heating degree days 1590 1539  
Cooling Degree Days 0 0  
Month to date cooling degree days 0 0  
Year to date cooling degree days 1591 1298  
Moisture  
Dew Point 19 °F    
Average Humidity 63    
Maximum Humidity 92    
Minimum Humidity 34    
Precipitation  
Precipitation 0.00 in 0.01 in 0.53 in (2012)
Month to date precipitation T 0.24  
Year to date precipitation 14.84 19.19  
Sea Level Pressure  
Sea Level Pressure 30.23 in    
Wind  
Wind Speed 13 mph (NNW)    
Max Wind Speed 24 mph    
Max Gust Speed 30 mph    
Visibility 10 miles    
Events      
T = Trace of Precipitation, MM = Missing Value Source: NWS Daily Summary

Daily Weather History Graph

Daily Weather History Graph

Search for Another Location

Airport or City:

Trip Planner

Search our weather history database for the weather conditions in past years. The results will help you decide how hot, cold, wet, or windy it might be!

Date:

Astronomy

Dec. 14, 2013 Rise Set
Actual Time 7:51 AM CST 5:24 PM CST
Civil Twilight 7:21 AM CST 5:53 PM CST
Nautical Twilight 6:48 AM CST 6:26 PM CST
Astronomical Twilight 6:16 AM CST 6:58 PM CST
Moon 3:46 PM CST (12/14) 5:15 AM CST (12/14)
Length of Visible Light 10h 32m
Length of Day
9h 33m
Waxing Gibbous, 94% of the Moon is Illuminated
Dec 14
Waxing Gibbous
Dec 17
Full
Dec 25
Last Quarter
Jan 1
New
Jan 7
First Quarter

Hourly Weather History & Observations

Time (CST) Temp. Windchill Dew Point Humidity Pressure Visibility Wind Dir Wind Speed Gust Speed Precip Events Conditions
12:28 AM 24.1 °F 11.5 °F 19.9 °F 84% 30.03 in 9.0 mi North 15.0 mph - N/A   Mostly Cloudy
12:50 AM 24.8 °F 11.9 °F 21.2 °F 86% 30.05 in 7.0 mi North 16.1 mph - N/A   Overcast
12:54 AM 24.1 °F 9.8 °F 21.0 °F 88% 30.09 in 7.0 mi North 19.6 mph - N/A   Overcast
1:54 AM 21.0 °F 9.9 °F 19.0 °F 92% 30.11 in 5.0 mi North 10.4 mph - N/A   Scattered Clouds
2:54 AM 21.0 °F 8.6 °F 18.0 °F 88% 30.14 in 10.0 mi NNW 12.7 mph - N/A   Clear
3:54 AM 21.0 °F 7.6 °F 17.1 °F 85% 30.16 in 10.0 mi NNW 15.0 mph - N/A   Clear
4:54 AM 21.0 °F 8.1 °F 16.0 °F 81% 30.18 in 10.0 mi NNW 13.8 mph - N/A   Clear
5:54 AM 19.0 °F 6.8 °F 15.1 °F 85% 30.24 in 10.0 mi NW 11.5 mph - N/A   Clear
6:54 AM 19.9 °F 9.3 °F 16.0 °F 85% 30.27 in 10.0 mi NNW 9.2 mph - N/A   Clear
7:54 AM 21.0 °F 8.6 °F 17.1 °F 85% 30.30 in 10.0 mi North 12.7 mph - N/A   Clear
8:54 AM 23.0 °F 13.1 °F 18.0 °F 81% 30.32 in 10.0 mi NNW 9.2 mph - N/A   Clear
9:54 AM 30.0 °F 18.7 °F 23.0 °F 75% 30.34 in 10.0 mi NNW 16.1 mph - N/A   Clear
10:54 AM 35.1 °F 26.9 °F 25.0 °F 67% 30.32 in 10.0 mi NNW 11.5 mph - N/A   Clear
11:54 AM 44.1 °F 35.7 °F 26.1 °F 49% 30.29 in 10.0 mi NNW 20.7 mph - N/A   Clear
12:54 PM 46.0 °F 38.3 °F 26.1 °F 46% 30.26 in 10.0 mi NNW 20.7 mph - N/A   Clear
1:54 PM 48.0 °F - 23.0 °F 37% 30.25 in 10.0 mi NNW 20.7 mph 27.6 mph N/A   Clear
2:54 PM 48.9 °F - 21.9 °F 35% 30.23 in 10.0 mi North 15.0 mph 26.5 mph N/A   Clear
3:54 PM 48.9 °F - 21.0 °F 33% 30.23 in 10.0 mi North 17.3 mph 26.5 mph N/A   Clear
4:54 PM 45.0 °F 39.7 °F 19.0 °F 36% 30.25 in 10.0 mi NNW 10.4 mph - N/A   Clear
5:54 PM 37.0 °F 31.0 °F 18.0 °F 46% 30.28 in 10.0 mi NNW 8.1 mph - N/A   Clear
6:54 PM 34.0 °F 27.2 °F 17.1 °F 50% 30.29 in 10.0 mi NW 8.1 mph - N/A   Clear
7:54 PM 35.1 °F 27.9 °F 18.0 °F 50% 30.30 in 10.0 mi WNW 9.2 mph - N/A   Clear
8:54 PM 32.0 °F 24.2 °F 17.1 °F 54% 30.29 in 10.0 mi WNW 9.2 mph - N/A   Clear
9:54 PM 27.0 °F 19.5 °F 16.0 °F 63% 30.28 in 10.0 mi West 6.9 mph - N/A   Clear
10:54 PM 24.1 °F 18.2 °F 15.1 °F 69% 30.28 in 10.0 mi West 4.6 mph - N/A   Clear
11:54 PM 24.1 °F 14.4 °F 15.1 °F 69% 30.27 in 10.0 mi West 9.2 mph - N/A   Clear